• In Hungary
  • List of Countries
  • For 7 days
  • Water Temperature
  • Satellite Maps
  • Weather Map
  • News
  • Weather Widgets
  • user-avatar
    Login

    Hourly Weather Petrovskaya

    Today, 23 July, Monday

    Time Temperature Precipitation Wind Pressure Humidity
    00:00 +19°C° 0 mm 5 mps 742 mmHg 94%
    01:00 +19°C° 0.1 mm 5 mps 742 mmHg 94%
    02:00 +19°C° 0.1 mm 4 mps 742 mmHg 94%
    03:00 +19°C° 0 mm 4 mps 742 mmHg 95%
    04:00 +18°C° 0.2 mm 4 mps 742 mmHg 94%
    05:00 +18°C° 0.2 mm 4 mps 742 mmHg 94%
    06:00 +17°C° 0.2 mm 5 mps 742 mmHg 94%
    07:00 +17°C° 0.1 mm 5 mps 742 mmHg 92%
    08:00 +19°C° 0.1 mm 5 mps 742 mmHg 90%
    09:00 +20°C° 0.1 mm 4 mps 742 mmHg 88%
    10:00 +21°C° 0.1 mm 5 mps 742 mmHg 85%
    11:00 +22°C° 0.1 mm 5 mps 742 mmHg 82%
    12:00 +23°C° 0.1 mm 5 mps 742 mmHg 79%
    13:00 +25°C° 0.1 mm 5 mps 742 mmHg 78%
    14:00 +25°C° 0.1 mm 5 mps 742 mmHg 76%
    15:00 +26°C° 0.1 mm 5 mps 742 mmHg 75%
    16:00 +26°C° 0.2 mm 5 mps 742 mmHg 77%
    17:00 +25°C° 0.2 mm 4 mps 742 mmHg 79%
    18:00 +25°C° 0.2 mm 4 mps 742 mmHg 81%
    19:00 +23°C° 0.8 mm 4 mps 742 mmHg 84%
    20:00 +22°C° 0.8 mm 4 mps 742 mmHg 88%
    21:00 +21°C° 0.8 mm 3 mps 742 mmHg 91%
    22:00 +21°C° 0.4 mm 3 mps 742 mmHg 92%
    23:00 +20°C° 0.4 mm 3 mps 742 mmHg 94%

    Tomorrow, 24 July, Tuesday

    Time Temperature Precipitation Wind Pressure Humidity
    00:00 +20°C° 0.4 mm 3 mps 742 mmHg 95%
    01:00 +20°C° 0 mm 3 mps 743 mmHg 95%
    02:00 +19°C° 0 mm 3 mps 743 mmHg 96%
    03:00 +19°C° 0 mm 3 mps 743 mmHg 96%
    04:00 +19°C° 0 mm 3 mps 743 mmHg 95%
    05:00 +19°C° 0 mm 3 mps 743 mmHg 95%
    06:00 +20°C° 0 mm 3 mps 744 mmHg 94%
    07:00 +21°C° 0 mm 3 mps 744 mmHg 89%
    08:00 +24°C° 0 mm 3 mps 744 mmHg 84%
    09:00 +25°C° 0 mm 3 mps 744 mmHg 79%
    10:00 +26°C° 0.8 mm 3 mps 744 mmHg 74%
    11:00 +27°C° 0.8 mm 3 mps 745 mmHg 70%
    12:00 +28°C° 0.8 mm 3 mps 745 mmHg 65%
    13:00 +28°C° 0.5 mm 4 mps 745 mmHg 65%
    14:00 +28°C° 0.5 mm 4 mps 745 mmHg 66%
    15:00 +28°C° 0.5 mm 4 mps 745 mmHg 66%
    16:00 +27°C° 0.5 mm 4 mps 745 mmHg 72%
    17:00 +26°C° 0.5 mm 4 mps 745 mmHg 77%
    18:00 +25°C° 0.5 mm 4 mps 746 mmHg 83%
    19:00 +23°C° 0.1 mm 4 mps 746 mmHg 85%
    20:00 +22°C° 0.1 mm 4 mps 746 mmHg 86%
    21:00 +21°C° 0.1 mm 4 mps 746 mmHg 88%
    22:00 +20°C° 0.1 mm 4 mps 746 mmHg 88%
    23:00 +20°C° 0.1 mm 3 mps 747 mmHg 87%

    Day after tomorrow, 25 July, Wednesday

    Time Temperature Precipitation Wind Pressure Humidity
    00:00 +19°C° 0.1 mm 3 mps 747 mmHg 87%
    01:00 +18°C° 0 mm 3 mps 747 mmHg 86%
    02:00 +18°C° 0 mm 3 mps 747 mmHg 85%
    03:00 +17°C° 0 mm 4 mps 747 mmHg 84%
    04:00 +17°C° 0 mm 4 mps 747 mmHg 82%
    05:00 +17°C° 0 mm 4 mps 747 mmHg 80%
    06:00 +17°C° 0 mm 4 mps 747 mmHg 78%
    07:00 +18°C° 0 mm 4 mps 747 mmHg 76%
    08:00 +17°C° 0 mm 5 mps 747 mmHg 74%
    09:00 +19°C° 0 mm 5 mps 747 mmHg 72%
    10:00 +19°C° 0.2 mm 5 mps 747 mmHg 75%
    11:00 +19°C° 0.2 mm 5 mps 747 mmHg 78%
    12:00 +19°C° 0.2 mm 6 mps 747 mmHg 80%
    13:00 +20°C° 0.4 mm 5 mps 747 mmHg 81%
    14:00 +21°C° 0.4 mm 4 mps 747 mmHg 82%
    15:00 +21°C° 0.4 mm 4 mps 747 mmHg 83%
    16:00 +22°C° 0.3 mm 4 mps 747 mmHg 81%
    17:00 +23°C° 0.3 mm 4 mps 747 mmHg 79%
    18:00 +25°C° 0.3 mm 4 mps 747 mmHg 77%
    19:00 +23°C° 0.1 mm 4 mps 747 mmHg 78%
    20:00 +22°C° 0.1 mm 3 mps 747 mmHg 80%
    21:00 +21°C° 0.1 mm 3 mps 747 mmHg 81%
    22:00 +20°C° 0.1 mm 3 mps 747 mmHg 81%
    23:00 +20°C° 0.1 mm 3 mps 748 mmHg 80%

    26 July, Thursday

    Time Temperature Precipitation Wind Pressure Humidity
    00:00 +19°C° 0.1 mm 4 mps 748 mmHg 80%
    01:00 +19°C° 0.1 mm 4 mps 748 mmHg 80%
    02:00 +19°C° 0.1 mm 3 mps 748 mmHg 81%
    03:00 +19°C° 0.1 mm 3 mps 747 mmHg 81%
    04:00 +19°C° 0 mm 3 mps 748 mmHg 81%
    05:00 +19°C° 0 mm 4 mps 748 mmHg 81%
    06:00 +19°C° 0 mm 4 mps 748 mmHg 80%
    07:00 +21°C° 0 mm 4 mps 748 mmHg 75%
    08:00 +23°C° 0 mm 4 mps 748 mmHg 71%
    09:00 +26°C° 0 mm 5 mps 749 mmHg 66%
    10:00 +27°C° 0 mm 5 mps 749 mmHg 64%
    11:00 +28°C° 0 mm 5 mps 749 mmHg 61%
    12:00 +29°C° 0 mm 5 mps 749 mmHg 59%
    13:00 +30°C° 0 mm 5 mps 749 mmHg 58%
    14:00 +30°C° 0 mm 6 mps 749 mmHg 57%
    15:00 +32°C° 0 mm 6 mps 749 mmHg 56%
    16:00 +30°C° 0 mm 5 mps 749 mmHg 60%
    17:00 +30°C° 0 mm 5 mps 749 mmHg 64%
    18:00 +29°C° 0 mm 4 mps 749 mmHg 68%
    19:00 +28°C° 0 mm 4 mps 749 mmHg 70%
    20:00 +27°C° 0 mm 4 mps 749 mmHg 72%
    21:00 +25°C° 0 mm 4 mps 750 mmHg 75%
    22:00 +23°C° 0 mm 4 mps 750 mmHg 76%
    23:00 +23°C° 0 mm 4 mps 750 mmHg 78%

    27 July, Friday

    Time Temperature Precipitation Wind Pressure Humidity
    00:00 +22°C° 0 mm 4 mps 750 mmHg 79%
    01:00 +22°C° 0 mm 4 mps 750 mmHg 79%
    02:00 +21°C° 0 mm 4 mps 750 mmHg 78%
    03:00 +21°C° 0 mm 4 mps 750 mmHg 78%
    04:00 +21°C° 0 mm 4 mps 751 mmHg 78%
    05:00 +21°C° 0 mm 4 mps 751 mmHg 78%
    06:00 +21°C° 0 mm 3 mps 751 mmHg 78%
    07:00 +22°C° 0 mm 4 mps 751 mmHg 75%
    08:00 +25°C° 0 mm 4 mps 751 mmHg 71%
    09:00 +26°C° 0 mm 4 mps 751 mmHg 68%
    10:00 +27°C° 0 mm 4 mps 751 mmHg 62%
    11:00 +29°C° 0 mm 5 mps 751 mmHg 57%
    12:00 +30°C° 0 mm 5 mps 751 mmHg 52%
    13:00 +30°C° 0 mm 5 mps 751 mmHg 51%
    14:00 +30°C° 0 mm 5 mps 751 mmHg 51%
    15:00 +30°C° 0 mm 5 mps 751 mmHg 51%
    16:00 +30°C° 0 mm 5 mps 751 mmHg 57%
    17:00 +29°C° 0 mm 4 mps 750 mmHg 62%
    18:00 +28°C° 0 mm 3 mps 750 mmHg 67%
    19:00 +27°C° 0 mm 3 mps 750 mmHg 70%
    20:00 +25°C° 0 mm 3 mps 750 mmHg 73%
    21:00 +24°C° 0 mm 2 mps 750 mmHg 76%
    22:00 +24°C° 0 mm 2 mps 750 mmHg 75%
    23:00 +23°C° 0 mm 2 mps 750 mmHg 73%

    28 July, Saturday

    Time Temperature Precipitation Wind Pressure Humidity
    00:00 +23°C° 0 mm 2 mps 750 mmHg 72%
    01:00 +23°C° 0 mm 2 mps 750 mmHg 75%
    02:00 +21°C° 0 mm 3 mps 750 mmHg 78%
    03:00 +21°C° 0 mm 3 mps 750 mmHg 81%
    04:00 +21°C° 0 mm 3 mps 750 mmHg 80%
    05:00 +21°C° 0 mm 3 mps 750 mmHg 80%
    06:00 +21°C° 0 mm 3 mps 750 mmHg 79%
    07:00 +22°C° 0 mm 3 mps 750 mmHg 75%
    08:00 +25°C° 0 mm 3 mps 750 mmHg 70%
    09:00 +26°C° 0 mm 3 mps 750 mmHg 66%
    10:00 +27°C° 0 mm 3 mps 750 mmHg 60%
    11:00 +29°C° 0 mm 4 mps 750 mmHg 54%
    12:00 +30°C° 0 mm 4 mps 750 mmHg 48%
    13:00 +30°C° 0 mm 4 mps 749 mmHg 48%
    14:00 +32°C° 0 mm 4 mps 749 mmHg 48%
    15:00 +32°C° 0 mm 4 mps 749 mmHg 48%
    16:00 +30°C° 0 mm 3 mps 749 mmHg 51%
    17:00 +30°C° 0 mm 3 mps 749 mmHg 55%
    18:00 +29°C° 0 mm 2 mps 749 mmHg 58%
    19:00 +28°C° 0 mm 2 mps 749 mmHg 62%
    20:00 +26°C° 0 mm 2 mps 749 mmHg 66%
    21:00 +24°C° 0 mm 2 mps 749 mmHg 69%
    22:00 +24°C° 0 mm 2 mps 749 mmHg 71%
    23:00 +23°C° 0 mm 2 mps 749 mmHg 73%
    Show more